Moab, UT

7:26 AM MST on February 13, 2016 (GMT -0700)
Canyonlands

Weather History for KCNY - January, 2014

Change the Weather History Date:

Wednesday, January 22, 2014

  Actual Average Record
Temperature  
Mean Temperature 29 °F 28 °F  
Max Temperature 38 °F 39 °F - ()
Min Temperature 20 °F 17 °F - ()
Degree Days  
Heating Degree Days 36 37  
Month to date heating degree days 916 857  
Since 1 July heating degree days 3735 3254  
Cooling Degree Days 0 0  
Month to date cooling degree days 0 0  
Year to date cooling degree days 0 0  
Moisture  
Dew Point 22 °F    
Average Humidity 74    
Maximum Humidity 92    
Minimum Humidity 56    
Precipitation  
Precipitation 0.00 in 0.01 in - ()
Month to date precipitation T 0.48  
Year to date precipitation T 0.48  
Sea Level Pressure  
Sea Level Pressure 30.19 in    
Wind  
Wind Speed 3 mph (WNW)    
Max Wind Speed 12 mph    
Max Gust Speed 12 mph    
Visibility 10 miles    
Events      
T = Trace of Precipitation, MM = Missing Value Source: NWS Daily Summary

Daily Weather History Graph

Daily Weather History Graph

Search for Another Location

Airport or City:

Trip Planner

Search our weather history database for the weather conditions in past years. The results will help you decide how hot, cold, wet, or windy it might be!

Date:

Astronomy

Jan. 22, 2014 Rise Set
Actual Time 7:32 AM MST 5:29 PM MST
Civil Twilight 7:03 AM MST 5:58 PM MST
Nautical Twilight 6:31 AM MST 6:30 PM MST
Astronomical Twilight 5:59 AM MST 7:02 PM MST
Moon No Moon Rise 10:39 AM MST (1/22)
Length of Visible Light 10h 54m
Length of Day
9h 57m
Waning Gibbous, 65% of the Moon is Illuminated
Jan 22
Waning Gibbous
Jan 23
Last Quarter
Jan 30
New
Feb 6
First Quarter
Feb 14
Full

Hourly Weather History & Observations

Time (MST) Temp. Windchill Dew Point Humidity Pressure Visibility Wind Dir Wind Speed Gust Speed Precip Events Conditions
12:53 AM 24.1 °F 19.7 °F 21.0 °F 88% 30.35 in 10.0 mi West 3.5 mph - N/A   Clear
1:53 AM 24.1 °F - 21.0 °F 88% 30.33 in 10.0 mi Calm Calm - N/A   Clear
2:53 AM 23.0 °F - 19.9 °F 88% 30.32 in 10.0 mi Calm Calm - N/A   Clear
3:53 AM 21.0 °F - 19.0 °F 92% 30.31 in 10.0 mi Calm Calm - N/A   Clear
4:53 AM 19.9 °F 13.4 °F 18.0 °F 92% 30.32 in 10.0 mi WSW 4.6 mph - N/A   Clear
5:53 AM 19.9 °F - 17.1 °F 89% 30.31 in 10.0 mi Calm Calm - N/A   Clear
6:53 AM 19.9 °F - 18.0 °F 92% 30.31 in 10.0 mi Calm Calm - N/A   Clear
7:53 AM 19.9 °F - 18.0 °F 92% 30.31 in 10.0 mi Calm Calm - N/A   Clear
8:53 AM 24.1 °F - 21.0 °F 88% 30.30 in 10.0 mi Calm Calm - N/A   Clear
9:53 AM 27.0 °F - 21.9 °F 81% 30.27 in 10.0 mi Calm Calm - N/A   Clear
10:53 AM 30.9 °F - 21.0 °F 67% 30.25 in 10.0 mi Calm Calm - N/A   Clear
11:53 AM 34.0 °F - 19.9 °F 56% 30.17 in 10.0 mi Calm Calm - N/A   Clear
12:53 PM 35.1 °F 27.4 °F 24.1 °F 64% 30.14 in 10.0 mi NW 10.4 mph - N/A   Clear
1:53 PM 33.1 °F 26.1 °F 23.0 °F 66% 30.10 in 10.0 mi NW 8.1 mph - N/A   Clear
2:53 PM 35.1 °F 29.3 °F 24.1 °F 64% 30.08 in 10.0 mi NW 6.9 mph - N/A   Clear
3:53 PM 35.1 °F 29.3 °F 21.9 °F 59% 30.07 in 10.0 mi NNW 6.9 mph - N/A   Clear
4:53 PM 35.1 °F 29.3 °F 21.9 °F 59% 30.06 in 10.0 mi NNW 6.9 mph - N/A   Clear
5:53 PM 30.0 °F 21.7 °F 23.0 °F 75% 30.08 in 10.0 mi NW 9.2 mph - N/A   Clear
6:53 PM 28.9 °F - 23.0 °F 78% 30.08 in 10.0 mi Calm Calm - N/A   Clear
7:53 PM 30.0 °F 26.5 °F 25.0 °F 82% 30.09 in 10.0 mi SW 3.5 mph - N/A   Clear
8:53 PM 28.9 °F - 24.1 °F 82% 30.08 in 10.0 mi Calm Calm - N/A   Clear
9:53 PM 28.0 °F - 24.1 °F 85% 30.07 in 10.0 mi Calm Calm - N/A   Clear
10:53 PM 28.0 °F - 25.0 °F 88% 30.07 in 10.0 mi Calm Calm - N/A   Clear
11:53 PM 27.0 °F - 21.9 °F 81% 30.06 in 10.0 mi Calm Calm - N/A   Clear